Back to catalog

STARLINK-31399

AliveCommunicationsVLEO
NORAD 59416·PAYLOAD·🇺🇸 United States

Launched Apr 5, 2024 from Cape Canaveral Space Force Station

Loading…

Next Passes (next 24 hours)

TLE

FreshSource: CelesTrak SupGP

Epoch: Sep 14, 2026, 14:14 UTC

1 59416C 24064U   26257.59354167 -.00023089  00000+0 -83635-3 0  2571
2 59416  42.9998  69.1677 0001474 266.0110 255.3308 15.27586897    11

Track STARLINK-31399 in real time with AllMySat

Download on the App Store